SAS4522 CYYC-ENGM

Flight info

Callsign SAS4522
Flight time N/A
Altitude 35000
Route AVROM MAPUX YMM 58N110W 64N100W 68N090W 71N080W 73N060W 73N040W 71N020W 69N010W 66N000W GIKOR BELGU BELG3L
Aircraft B772/H-SDE2E3FGHIJ5LORVWXY/LB1D1

Departure

Time 2026-05-05 11:50
Airport Calgary International Airport (CYYC)

Arrival

Time N/A
Airport Oslo-Gardermoen International Airport (ENGM)
Time Latitude Longitude Altitude Speed Heading
2026-05-05 11:35 51.13237 -114.01588 3570 ft 0 kts 56°
2026-05-05 11:38 51.13225 -114.01616 3559 ft 4 kts 55°
2026-05-05 11:39 51.13209 -114.01650 3558 ft 4 kts 50°
2026-05-05 11:39 51.13195 -114.01680 3558 ft 4 kts 75°
2026-05-05 11:39 51.13192 -114.01713 3558 ft 4 kts 109°
2026-05-05 11:39 51.13201 -114.01732 3558 ft 4 kts 162°
2026-05-05 11:40 51.13226 -114.01743 3558 ft 3 kts 159°
2026-05-05 11:40 51.13232 -114.01747 3558 ft 0 kts 158°
2026-05-05 11:42 51.13169 -114.01726 3558 ft 12 kts 177°
2026-05-05 11:42 51.13079 -114.01778 3563 ft 16 kts 201°
2026-05-05 11:42 51.12949 -114.01795 3563 ft 21 kts 180°
2026-05-05 11:43 51.12791 -114.01794 3562 ft 22 kts 180°
2026-05-05 11:43 51.12639 -114.01795 3564 ft 22 kts 180°
2026-05-05 11:43 51.12487 -114.01797 3561 ft 22 kts 180°
2026-05-05 11:43 51.12335 -114.01797 3559 ft 22 kts 180°
2026-05-05 11:44 51.12183 -114.01797 3556 ft 22 kts 180°
2026-05-05 11:44 51.12031 -114.01798 3562 ft 22 kts 180°
2026-05-05 11:44 51.11879 -114.01799 3555 ft 22 kts 180°
2026-05-05 11:44 51.11727 -114.01800 3560 ft 22 kts 180°
2026-05-05 11:45 51.11575 -114.01798 3559 ft 22 kts 180°
2026-05-05 11:45 51.11423 -114.01797 3555 ft 22 kts 180°
2026-05-05 11:45 51.11271 -114.01797 3561 ft 22 kts 180°
2026-05-05 11:45 51.11119 -114.01798 3557 ft 22 kts 180°
2026-05-05 11:46 51.10967 -114.01799 3559 ft 22 kts 180°
2026-05-05 11:46 51.10815 -114.01798 3559 ft 22 kts 180°
2026-05-05 11:46 51.10663 -114.01798 3558 ft 22 kts 180°
2026-05-05 11:46 51.10511 -114.01798 3558 ft 22 kts 180°
2026-05-05 11:47 51.10359 -114.01797 3558 ft 22 kts 180°
2026-05-05 11:47 51.10207 -114.01798 3558 ft 22 kts 180°
2026-05-05 11:47 51.10055 -114.01798 3557 ft 22 kts 180°
2026-05-05 11:47 51.09904 -114.01798 3556 ft 22 kts 180°
2026-05-05 11:48 51.09683 -114.01990 3556 ft 22 kts 262°
2026-05-05 11:48 51.09745 -114.02136 3557 ft 17 kts 349°
2026-05-05 11:48 51.09906 -114.02139 3558 ft 45 kts 360°
2026-05-05 11:49 51.10423 -114.02137 3552 ft 102 kts
2026-05-05 11:49 51.11300 -114.02138 3556 ft 149 kts 360°
2026-05-05 11:49 51.12479 -114.02132 3609 ft 186 kts
2026-05-05 11:49 51.13816 -114.02128 3934 ft 198 kts
2026-05-05 11:50 51.15223 -114.02154 4415 ft 206 kts 359°
2026-05-05 11:50 51.16672 -114.02201 5028 ft 212 kts 358°
2026-05-05 11:50 51.18192 -114.02289 5323 ft 224 kts 357°
2026-05-05 11:50 51.19784 -114.02399 5548 ft 235 kts 357°
2026-05-05 11:51 51.21444 -114.02520 5858 ft 242 kts 357°
2026-05-05 11:51 51.23138 -114.02642 6275 ft 245 kts 357°
2026-05-05 11:51 51.24816 -114.02279 6575 ft 249 kts 24°
2026-05-05 11:51 51.26298 -114.00833 6914 ft 252 kts 30°
2026-05-05 11:52 51.27780 -113.99326 7376 ft 252 kts 29°
2026-05-05 11:52 51.29270 -113.97848 7890 ft 252 kts 28°
2026-05-05 11:52 51.30767 -113.96380 8352 ft 253 kts 28°
2026-05-05 11:52 51.32271 -113.94918 8797 ft 254 kts 27°
2026-05-05 11:53 51.33783 -113.93455 9253 ft 254 kts 27°
2026-05-05 11:53 51.35285 -113.92009 9696 ft 256 kts 27°
2026-05-05 11:53 51.36810 -113.90545 10131 ft 256 kts 26°
2026-05-05 11:53 51.38346 -113.89072 10529 ft 257 kts 26°
2026-05-05 11:54 51.39883 -113.87597 10976 ft 258 kts 26°
2026-05-05 11:54 51.41430 -113.86114 11347 ft 264 kts 26°
2026-05-05 11:54 51.43053 -113.84559 11486 ft 280 kts 27°
2026-05-05 11:54 51.44777 -113.82908 11639 ft 297 kts 27°
2026-05-05 11:55 51.46608 -113.81181 11793 ft 314 kts 24°
2026-05-05 11:55 51.48647 -113.79707 11983 ft 329 kts 18°
2026-05-05 11:55 51.50855 -113.78597 12455 ft 336 kts 12°
2026-05-05 11:55 51.53144 -113.77717 13089 ft 341 kts 11°
2026-05-05 11:56 51.55470 -113.76861 13878 ft 343 kts 11°
2026-05-05 11:56 51.57798 -113.76009 14634 ft 345 kts 11°
2026-05-05 11:56 51.60137 -113.75149 15431 ft 344 kts 11°
2026-05-05 11:56 51.62468 -113.74287 16257 ft 343 kts 10°
2026-05-05 11:57 51.64796 -113.73421 17054 ft 343 kts 10°
2026-05-05 11:57 51.67125 -113.72551 17827 ft 344 kts 10°
2026-05-05 11:57 51.69464 -113.71673 18594 ft 346 kts 10°
2026-05-05 11:57 51.71813 -113.70788 19240 ft 347 kts 10°
2026-05-05 11:58 51.74168 -113.69900 19903 ft 348 kts 10°
2026-05-05 11:58 51.76526 -113.69008 20571 ft 349 kts
2026-05-05 11:58 51.78892 -113.68112 21236 ft 350 kts
2026-05-05 11:58 51.81268 -113.67211 21903 ft 351 kts
2026-05-05 11:59 51.83652 -113.66307 22558 ft 352 kts
2026-05-05 11:59 51.86005 -113.65412 23188 ft 353 kts
2026-05-05 11:59 51.88401 -113.64501 23777 ft 354 kts
2026-05-05 11:59 51.90808 -113.63584 24274 ft 355 kts
2026-05-05 12:00 51.93220 -113.62664 24741 ft 357 kts
2026-05-05 12:00 51.95638 -113.61741 25199 ft 358 kts
2026-05-05 12:00 51.98065 -113.60814 25629 ft 359 kts
2026-05-05 12:00 52.00505 -113.59881 26047 ft 361 kts
2026-05-05 12:01 52.02949 -113.58945 26455 ft 362 kts
2026-05-05 12:01 52.05407 -113.58002 26858 ft 363 kts
2026-05-05 12:01 52.07873 -113.57055 27246 ft 365 kts
2026-05-05 12:01 52.10346 -113.56105 27617 ft 366 kts
2026-05-05 12:02 52.12824 -113.55152 27987 ft 367 kts
2026-05-05 12:02 52.15315 -113.54192 28340 ft 368 kts
2026-05-05 12:02 52.17817 -113.53227 28674 ft 370 kts
2026-05-05 12:02 52.20319 -113.52261 29001 ft 371 kts
2026-05-05 12:03 52.22802 -113.51301 29315 ft 372 kts
2026-05-05 12:03 52.25330 -113.50323 29602 ft 373 kts
2026-05-05 12:03 52.27856 -113.49344 29862 ft 374 kts
2026-05-05 12:03 52.30391 -113.48360 30182 ft 374 kts
2026-05-05 12:04 52.32917 -113.47378 30558 ft 371 kts
2026-05-05 12:04 52.35425 -113.46401 30896 ft 370 kts
2026-05-05 12:04 52.37923 -113.45428 31175 ft 369 kts
2026-05-05 12:04 52.40424 -113.44454 31415 ft 369 kts
2026-05-05 12:05 52.42922 -113.43479 31676 ft 368 kts
2026-05-05 12:05 52.45418 -113.42504 31932 ft 368 kts
2026-05-05 12:05 52.47906 -113.41531 32198 ft 367 kts
2026-05-05 12:05 52.50383 -113.40561 32463 ft 366 kts
2026-05-05 12:06 52.52862 -113.39589 32705 ft 366 kts
2026-05-05 12:06 52.55333 -113.38620 32957 ft 365 kts
2026-05-05 12:06 52.57798 -113.37651 33187 ft 365 kts
2026-05-05 12:06 52.60278 -113.36677 33233 ft 367 kts
2026-05-05 12:07 52.65269 -113.34711 33304 ft 372 kts
2026-05-05 12:07 52.70342 -113.32708 33326 ft 377 kts
2026-05-05 12:08 52.75481 -113.30618 33311 ft 384 kts 11°
2026-05-05 12:08 52.80624 -113.28052 33316 ft 388 kts 12°
2026-05-05 12:09 52.85803 -113.25389 33309 ft 391 kts 12°
2026-05-05 12:09 52.90980 -113.22725 33313 ft 393 kts 12°
2026-05-05 12:10 52.96198 -113.20045 33311 ft 393 kts 12°
2026-05-05 12:10 53.01424 -113.17359 33310 ft 392 kts 12°
2026-05-05 12:11 53.06624 -113.14682 33309 ft 391 kts 12°
2026-05-05 12:11 53.11806 -113.12008 33307 ft 389 kts 12°
2026-05-05 12:12 53.16963 -113.09341 33307 ft 388 kts 12°
2026-05-05 12:12 53.22107 -113.06675 33307 ft 387 kts 12°
2026-05-05 12:13 53.27242 -113.04007 33312 ft 386 kts 12°
2026-05-05 12:13 53.32366 -113.01337 33306 ft 386 kts 12°
2026-05-05 12:14 53.37454 -112.98679 33320 ft 386 kts 12°
2026-05-05 12:14 53.42580 -112.95996 33320 ft 386 kts 12°
2026-05-05 12:15 53.47710 -112.93303 33311 ft 386 kts 12°
2026-05-05 12:15 53.52844 -112.90601 33320 ft 387 kts 12°
2026-05-05 12:16 53.57984 -112.87889 33319 ft 387 kts 12°
2026-05-05 12:16 53.63124 -112.85169 33320 ft 388 kts 12°
2026-05-05 12:17 53.68270 -112.82439 33314 ft 388 kts 12°
2026-05-05 12:17 53.73419 -112.79702 33313 ft 388 kts 12°
2026-05-05 12:18 53.78539 -112.76972 33310 ft 388 kts 12°
2026-05-05 12:18 53.83722 -112.74202 33311 ft 388 kts 12°
2026-05-05 12:19 53.88837 -112.71461 33318 ft 388 kts 12°
2026-05-05 12:19 53.93988 -112.68692 33317 ft 388 kts 12°
2026-05-05 12:20 53.99140 -112.65917 33317 ft 388 kts 12°
2026-05-05 12:20 54.04293 -112.63135 33557 ft 388 kts 12°
2026-05-05 12:21 54.06863 -112.61744 33742 ft 387 kts 12°
2026-05-05 12:21 54.09422 -112.60356 33913 ft 386 kts 12°
2026-05-05 12:21 54.11983 -112.58967 34043 ft 386 kts 12°
2026-05-05 12:21 54.14538 -112.57579 34172 ft 386 kts 12°
2026-05-05 12:22 54.17096 -112.56188 34315 ft 386 kts 12°
2026-05-05 12:22 54.19653 -112.54795 34422 ft 386 kts 12°
2026-05-05 12:22 54.24786 -112.51996 34581 ft 388 kts 12°
2026-05-05 12:23 54.29928 -112.49183 34753 ft 389 kts 12°
2026-05-05 12:23 54.35090 -112.46352 34927 ft 390 kts 12°
2026-05-05 12:24 54.40239 -112.43520 35079 ft 392 kts 13°
2026-05-05 12:24 54.45432 -112.40655 35232 ft 392 kts 13°
2026-05-05 12:25 54.50637 -112.37777 35302 ft 393 kts 13°
2026-05-05 12:25 54.55861 -112.34882 35323 ft 396 kts 13°
2026-05-05 12:26 54.61125 -112.31956 35322 ft 398 kts 13°
2026-05-05 12:26 54.65509 -112.29512 35321 ft 399 kts 13°
2026-05-05 12:27 54.70806 -112.26552 35317 ft 400 kts 13°
2026-05-05 12:27 54.76094 -112.23588 35324 ft 400 kts 13°
2026-05-05 12:28 54.81381 -112.20616 35325 ft 399 kts 13°
2026-05-05 12:28 54.86649 -112.17648 35320 ft 397 kts 13°
2026-05-05 12:29 54.91897 -112.14683 35325 ft 396 kts 13°
2026-05-05 12:29 54.97138 -112.11714 35331 ft 395 kts 13°
2026-05-05 12:30 55.02371 -112.08742 35333 ft 395 kts 13°
2026-05-05 12:30 55.07603 -112.05763 35329 ft 395 kts 13°
2026-05-05 12:31 55.12801 -112.02795 35333 ft 396 kts 13°
2026-05-05 12:31 55.18069 -111.99778 35332 ft 396 kts 13°
2026-05-05 12:32 55.23313 -111.96766 35335 ft 397 kts 13°
2026-05-05 12:32 55.28532 -111.93760 35332 ft 397 kts 13°
2026-05-05 12:33 55.33822 -111.90705 35331 ft 398 kts 13°
2026-05-05 12:33 55.39053 -111.87676 35337 ft 399 kts 13°
2026-05-05 12:34 55.44327 -111.84613 35333 ft 399 kts 13°
2026-05-05 12:34 55.49609 -111.81537 35334 ft 400 kts 13°
2026-05-05 12:35 55.54899 -111.78447 35329 ft 401 kts 13°
2026-05-05 12:35 55.60199 -111.75343 35330 ft 401 kts 13°
2026-05-05 12:36 55.65504 -111.72226 35322 ft 402 kts 13°
2026-05-05 12:36 55.70812 -111.69100 35344 ft 402 kts 14°
2026-05-05 12:37 55.76131 -111.65957 35343 ft 403 kts 14°
2026-05-05 12:37 55.81448 -111.62807 35329 ft 403 kts 14°
2026-05-05 12:38 55.86775 -111.59642 35331 ft 404 kts 14°
2026-05-05 12:38 55.92110 -111.56463 35331 ft 404 kts 14°
2026-05-05 12:39 55.97447 -111.53273 35330 ft 405 kts 14°
2026-05-05 12:39 56.02757 -111.50090 35331 ft 405 kts 14°
2026-05-05 12:40 56.08112 -111.46872 35329 ft 406 kts 14°
2026-05-05 12:40 56.13468 -111.43642 35329 ft 407 kts 14°
2026-05-05 12:41 56.18839 -111.40394 35329 ft 407 kts 14°
2026-05-05 12:41 56.24212 -111.37136 35329 ft 408 kts 14°
2026-05-05 12:42 56.29594 -111.33862 35326 ft 408 kts 14°
2026-05-05 12:42 56.34983 -111.30574 35315 ft 409 kts 14°
2026-05-05 12:43 56.40373 -111.27275 35302 ft 409 kts 14°
2026-05-05 12:43 56.45777 -111.23958 35292 ft 410 kts 14°
2026-05-05 12:44 56.51187 -111.20627 35282 ft 411 kts 14°
2026-05-05 12:44 56.56603 -111.17283 35267 ft 412 kts 14°
2026-05-05 12:45 56.62028 -111.13924 35267 ft 412 kts 14°
2026-05-05 12:45 56.67401 -111.10206 35269 ft 415 kts 18°
2026-05-05 12:46 56.72696 -111.05963 35272 ft 416 kts 19°
2026-05-05 12:46 56.77987 -111.01676 35289 ft 417 kts 19°
2026-05-05 12:47 56.83292 -110.97388 35303 ft 417 kts 19°
2026-05-05 12:47 56.88612 -110.93091 35313 ft 418 kts 19°
2026-05-05 12:48 56.93934 -110.88782 35329 ft 419 kts 19°
2026-05-05 12:48 56.99233 -110.84480 35333 ft 420 kts 19°
2026-05-05 12:49 57.04572 -110.80131 35330 ft 420 kts 19°
2026-05-05 12:49 57.09920 -110.75761 35332 ft 421 kts 19°
2026-05-05 12:50 57.15281 -110.71367 35330 ft 422 kts 19°
2026-05-05 12:50 57.20656 -110.66948 35330 ft 423 kts 19°
2026-05-05 12:51 57.26030 -110.62514 35330 ft 424 kts 19°
2026-05-05 12:51 57.31420 -110.58053 35339 ft 425 kts 19°
2026-05-05 12:52 57.36819 -110.53569 35323 ft 426 kts 20°
2026-05-05 12:52 57.42228 -110.49064 35331 ft 426 kts 20°
2026-05-05 12:53 57.47644 -110.44537 35330 ft 427 kts 20°
2026-05-05 12:53 57.53062 -110.39994 35333 ft 428 kts 20°
2026-05-05 12:54 57.61215 -110.33130 35331 ft 429 kts 20°
2026-05-05 12:55 57.66657 -110.28531 35327 ft 430 kts 20°
2026-05-05 12:55 57.72099 -110.23913 35331 ft 430 kts 20°
2026-05-05 12:56 57.77552 -110.19272 35331 ft 430 kts 20°
2026-05-05 12:56 57.83003 -110.14618 35331 ft 431 kts 20°
2026-05-05 12:57 57.88464 -110.09937 35339 ft 431 kts 20°
2026-05-05 12:57 57.93928 -110.05241 35334 ft 432 kts 20°
2026-05-05 12:58 57.99346 -110.00448 35336 ft 435 kts 24°
2026-05-05 12:58 58.04478 -109.94291 35335 ft 439 kts 30°
2026-05-05 12:59 58.09491 -109.87658 35348 ft 440 kts 30°
2026-05-05 12:59 58.14510 -109.81008 35353 ft 441 kts 30°
2026-05-05 13:00 58.22064 -109.71011 35349 ft 442 kts 30°
2026-05-05 13:01 58.32161 -109.57597 35358 ft 444 kts 30°
2026-05-05 13:01 58.37220 -109.50839 35356 ft 445 kts 30°
2026-05-05 13:02 58.42290 -109.44043 35355 ft 446 kts 30°
2026-05-05 13:02 58.47367 -109.37213 35356 ft 446 kts 30°
2026-05-05 13:03 58.52444 -109.30357 35357 ft 447 kts 31°
2026-05-05 13:03 58.57522 -109.23476 35355 ft 447 kts 31°
2026-05-05 13:04 58.62568 -109.16613 35365 ft 448 kts 31°
2026-05-05 13:04 58.67654 -109.09671 35366 ft 449 kts 31°
2026-05-05 13:05 58.72741 -109.02702 35360 ft 449 kts 31°
2026-05-05 13:05 58.77828 -108.95707 35360 ft 450 kts 31°
2026-05-05 13:06 58.82919 -108.88681 35358 ft 450 kts 31°
2026-05-05 13:06 58.88014 -108.81624 35361 ft 451 kts 31°
2026-05-05 13:07 58.93105 -108.74545 35360 ft 451 kts 31°
2026-05-05 13:07 58.98203 -108.67429 35358 ft 452 kts 31°
2026-05-05 13:08 59.03303 -108.60286 35350 ft 452 kts 32°
2026-05-05 13:08 59.08400 -108.53121 35352 ft 453 kts 32°
2026-05-05 13:09 59.13499 -108.45924 35354 ft 453 kts 32°
2026-05-05 13:09 59.18598 -108.38701 35354 ft 453 kts 32°
2026-05-05 13:10 59.23699 -108.31448 35350 ft 454 kts 32°
2026-05-05 13:10 59.28797 -108.24170 35354 ft 454 kts 32°
2026-05-05 13:11 59.33890 -108.16873 35358 ft 454 kts 32°
2026-05-05 13:11 59.38983 -108.09549 35357 ft 454 kts 32°
2026-05-05 13:12 59.44076 -108.02197 35362 ft 454 kts 32°
2026-05-05 13:12 59.49169 -107.94817 35355 ft 455 kts 32°
2026-05-05 13:13 59.54223 -107.87463 35359 ft 455 kts 33°
2026-05-05 13:13 59.59318 -107.80023 35360 ft 456 kts 33°
2026-05-05 13:14 59.64411 -107.72556 35365 ft 456 kts 33°
2026-05-05 13:14 59.69512 -107.65049 35364 ft 457 kts 33°
2026-05-05 13:15 59.73784 -107.58740 35365 ft 457 kts 33°
2026-05-05 13:15 59.78887 -107.51175 35367 ft 458 kts 33°
2026-05-05 13:16 59.83958 -107.43629 35370 ft 459 kts 33°
2026-05-05 13:16 59.89061 -107.36005 35369 ft 459 kts 33°
2026-05-05 13:17 59.94172 -107.28342 35372 ft 459 kts 33°
2026-05-05 13:17 59.99276 -107.20656 35370 ft 460 kts 33°
2026-05-05 13:18 60.04381 -107.12938 35373 ft 460 kts 34°
2026-05-05 13:18 60.09485 -107.05192 35365 ft 461 kts 34°
2026-05-05 13:19 60.14587 -106.97415 35374 ft 461 kts 34°
2026-05-05 13:19 60.19691 -106.89608 35371 ft 461 kts 34°
2026-05-05 13:20 60.24798 -106.81763 35376 ft 462 kts 34°
2026-05-05 13:20 60.29904 -106.73888 35371 ft 462 kts 34°
2026-05-05 13:21 60.35011 -106.65980 35377 ft 463 kts 34°
2026-05-05 13:21 60.40115 -106.58044 35377 ft 463 kts 34°
2026-05-05 13:22 60.45217 -106.50079 35371 ft 463 kts 34°
2026-05-05 13:22 60.50324 -106.42074 35373 ft 464 kts 35°
2026-05-05 13:23 60.55426 -106.34044 35373 ft 464 kts 35°
2026-05-05 13:23 60.60524 -106.25986 35377 ft 464 kts 35°
2026-05-05 13:24 60.65622 -106.17897 35376 ft 465 kts 35°
2026-05-05 13:24 60.70722 -106.09769 35370 ft 465 kts 35°
2026-05-05 13:25 60.75820 -106.01612 35376 ft 466 kts 35°
2026-05-05 13:25 60.80885 -105.93474 35374 ft 466 kts 36°
2026-05-05 13:26 60.85982 -105.85249 35373 ft 466 kts 36°
2026-05-05 13:26 60.91078 -105.76993 35377 ft 466 kts 36°
2026-05-05 13:27 60.96168 -105.68712 35377 ft 467 kts 36°
2026-05-05 13:27 61.01257 -105.60397 35371 ft 467 kts 36°
2026-05-05 13:28 61.06341 -105.52056 35377 ft 467 kts 36°
2026-05-05 13:28 61.11422 -105.43683 35374 ft 467 kts 36°
2026-05-05 13:29 61.16501 -105.35280 35374 ft 467 kts 36°
2026-05-05 13:29 61.21576 -105.26847 35377 ft 467 kts 36°
2026-05-05 13:30 61.26643 -105.18389 35383 ft 468 kts 36°
2026-05-05 13:30 61.31709 -105.09898 35384 ft 468 kts 36°
2026-05-05 13:31 61.36773 -105.01377 35378 ft 468 kts 37°
2026-05-05 13:31 61.41831 -104.92826 35381 ft 468 kts 37°
2026-05-05 13:32 61.46856 -104.84293 35375 ft 468 kts 37°
2026-05-05 13:32 61.51909 -104.75680 35378 ft 469 kts 37°
2026-05-05 13:33 61.56961 -104.67031 35378 ft 469 kts 37°
2026-05-05 13:33 61.62009 -104.58347 35368 ft 469 kts 37°
2026-05-05 13:34 61.67051 -104.49636 35380 ft 469 kts 37°
2026-05-05 13:34 61.72090 -104.40894 35387 ft 469 kts 37°
2026-05-05 13:35 61.77130 -104.32115 35376 ft 470 kts 37°
2026-05-05 13:35 61.82166 -104.23300 35374 ft 470 kts 37°
2026-05-05 13:36 61.87195 -104.14460 35376 ft 470 kts 38°
2026-05-05 13:36 61.92226 -104.05576 35375 ft 470 kts 38°
2026-05-05 13:37 61.97252 -103.96661 35375 ft 471 kts 38°
2026-05-05 13:37 62.02241 -103.87774 35375 ft 471 kts 38°
2026-05-05 13:38 62.07263 -103.78789 35373 ft 471 kts 38°
2026-05-05 13:38 62.12274 -103.69781 35369 ft 472 kts 38°
2026-05-05 13:39 62.17291 -103.60725 35371 ft 472 kts 38°
2026-05-05 13:39 62.22302 -103.51635 35367 ft 472 kts 38°
2026-05-05 13:40 62.27306 -103.42519 35366 ft 472 kts 38°
2026-05-05 13:40 62.32299 -103.33383 35369 ft 472 kts 38°
2026-05-05 13:41 62.37294 -103.24200 35363 ft 472 kts 39°
2026-05-05 13:41 62.42278 -103.14995 35364 ft 472 kts 39°
2026-05-05 13:42 62.47253 -103.05765 35355 ft 472 kts 39°
2026-05-05 13:42 62.52224 -102.96502 35359 ft 471 kts 39°
2026-05-05 13:43 62.57192 -102.87204 35361 ft 472 kts 39°
2026-05-05 13:43 62.62150 -102.77878 35358 ft 472 kts 39°
2026-05-05 13:44 62.67101 -102.68521 35357 ft 472 kts 39°
2026-05-05 13:44 62.72051 -102.59127 35358 ft 471 kts 39°
2026-05-05 13:45 62.76989 -102.49711 35357 ft 471 kts 39°
2026-05-05 13:45 62.81892 -102.40318 35356 ft 472 kts 39°
2026-05-05 13:46 62.86825 -102.30825 35350 ft 472 kts 39°
2026-05-05 13:46 62.91746 -102.21307 35347 ft 472 kts 39°
2026-05-05 13:47 62.96657 -102.11764 35348 ft 471 kts 39°